Sitka, AK

12:07 AM AKDT on May 26, 2017 (GMT -0800)
Sitka Rocky Gutierrez

Weather History for PASI - September, 2014

Change the Weather History Date:

Sunday, September 28, 2014

  Actual Average Record
Temperature  
Mean Temperature 54 °F -  
Max Temperature 57 °F 54 °F 66 °F (2003)
Min Temperature 50 °F 46 °F 23 °F (1971)
Degree Days  
Heating Degree Days 12    
Growing Degree Days 4 (Base 50)    
Moisture  
Dew Point 52 °F    
Average Humidity 91    
Maximum Humidity 100    
Minimum Humidity 77    
Precipitation  
Precipitation 0.74 in - - ()
Sea Level Pressure  
Sea Level Pressure 29.53 in    
Wind  
Wind Speed 11 mph (SE)    
Max Wind Speed 17 mph    
Max Gust Speed 23 mph    
Visibility 8 miles    
Events Rain    
Averages and records for this station are not official NWS values.
T = Trace of Precipitation, MM = Missing Value Source: NWS Daily Summary

Daily Weather History Graph

Daily Weather History Graph

Search for Another Location

Airport or City:

Trip Planner

Search our weather history database for the weather conditions in past years. The results will help you decide how hot, cold, wet, or windy it might be!

Date:

Astronomy

Sep. 28, 2014 Rise Set
Actual Time 6:59 AM AKDT 6:43 PM AKDT
Civil Twilight 6:21 AM AKDT 7:21 PM AKDT
Nautical Twilight 5:36 AM AKDT 8:06 PM AKDT
Astronomical Twilight 4:49 AM AKDT 8:53 PM AKDT
Moon 12:10 PM AKDT (9/28) 8:42 PM AKDT (9/28)
Length of Visible Light 13h 00m
Length of Day
11h 44m
Waxing Crescent, 20% of the Moon is Illuminated
Sep 28
Waxing Crescent
Oct 1
First Quarter
Oct 8
Full
Oct 15
Last Quarter
Oct 23
New

Hourly Weather History & Observations

Time (AKDT) Temp. Dew Point Humidity Pressure Visibility Wind Dir Wind Speed Gust Speed Precip Events Conditions
12:46 AM 55.0 °F 52.0 °F 89% 29.47 in 2.0 mi ESE 17.3 mph 23.0 mph 0.15 in Rain Heavy Rain
12:53 AM 55.0 °F 52.0 °F 89% 29.47 in 2.0 mi ESE 15.0 mph - 0.22 in Rain Heavy Rain
1:07 AM 55.0 °F 53.1 °F 93% 29.47 in 4.0 mi ESE 13.8 mph - 0.04 in Rain Rain
1:36 AM 55.0 °F 53.1 °F 93% 29.47 in 2.5 mi ESE 12.7 mph - 0.09 in Rain Light Rain
1:44 AM 55.0 °F 53.1 °F 93% 29.47 in 3.0 mi ESE 12.7 mph - 0.10 in Rain Light Rain
1:51 AM 55.4 °F 53.6 °F 94% 29.48 in 2.5 mi SE 11.5 mph - 0.12 in Rain Light Rain
1:53 AM 55.0 °F 53.1 °F 93% 29.48 in 2.5 mi ESE 13.8 mph - 0.12 in Rain Light Rain
2:03 AM 55.0 °F 53.1 °F 93% 29.47 in 1.8 mi ESE 12.7 mph - 0.09 in Rain Rain
2:08 AM 55.0 °F 53.1 °F 93% 29.47 in 3.0 mi SE 11.5 mph - 0.10 in Rain Light Rain
2:53 AM 55.0 °F 54.0 °F 96% 29.48 in 10.0 mi East 8.1 mph - 0.13 in Rain Light Rain
3:06 AM 55.0 °F 54.0 °F 96% 29.48 in 10.0 mi East 8.1 mph - 0.00 in Rain Light Rain
3:53 AM 57.0 °F 50.0 °F 77% 29.48 in 10.0 mi ESE 12.7 mph - 0.01 in   Overcast
4:53 AM 54.0 °F 50.0 °F 86% 29.49 in 8.0 mi SE 10.4 mph - 0.01 in Rain Light Rain
5:10 AM 54.0 °F 50.0 °F 86% 29.50 in 8.0 mi ESE 10.4 mph - 0.00 in Rain Light Rain
5:27 AM 54.0 °F 50.0 °F 86% 29.50 in 10.0 mi ESE 11.5 mph - 0.00 in Rain Light Rain
5:53 AM 55.0 °F 50.0 °F 83% 29.51 in 10.0 mi SE 12.7 mph - 0.01 in Rain Light Rain
6:03 AM 54.0 °F 50.0 °F 86% 29.51 in 10.0 mi SSE 12.7 mph - 0.00 in Rain Light Rain
6:14 AM 54.0 °F 51.1 °F 90% 29.51 in 10.0 mi SE 11.5 mph - 0.00 in Rain Light Rain
6:53 AM 55.0 °F 52.0 °F 89% 29.52 in 10.0 mi South 10.4 mph 18.4 mph 0.02 in Rain Light Rain
7:53 AM 54.0 °F 52.0 °F 93% 29.53 in 9.0 mi SSE 10.4 mph - 0.00 in Rain Light Rain
8:31 AM 55.0 °F 51.1 °F 86% 29.53 in 10.0 mi Variable 4.6 mph - 0.01 in   Overcast
8:53 AM 54.0 °F 52.0 °F 93% 29.55 in 7.0 mi SSE 11.5 mph - 0.01 in Rain Light Rain
9:29 AM 54.0 °F 52.0 °F 93% 29.54 in 9.0 mi South 9.2 mph - 0.00 in Rain Light Rain
9:53 AM 55.0 °F 52.0 °F 89% 29.54 in 9.0 mi SSE 9.2 mph 18.4 mph 0.00 in   Overcast
10:21 AM 54.0 °F 52.0 °F 93% 29.54 in 9.0 mi SE 5.8 mph - N/A   Overcast
10:38 AM 55.0 °F 51.1 °F 86% 29.55 in 9.0 mi SE 4.6 mph - N/A   Overcast
10:53 AM 54.0 °F 52.0 °F 93% 29.56 in 9.0 mi East 3.5 mph - N/A   Overcast
11:03 AM 54.0 °F 52.0 °F 93% 29.56 in 9.0 mi Variable 4.6 mph - N/A   Overcast
11:11 AM 55.0 °F 52.0 °F 89% 29.56 in 9.0 mi SSE 9.2 mph - N/A   Overcast
11:53 AM 55.0 °F 52.0 °F 89% 29.56 in 9.0 mi ESE 5.8 mph - N/A   Overcast
12:53 PM 55.0 °F 51.1 °F 86% 29.56 in 10.0 mi ESE 5.8 mph - 0.00 in   Overcast
1:53 PM 55.9 °F 52.0 °F 87% 29.56 in 10.0 mi SSE 4.6 mph - 0.01 in Rain Light Rain
2:53 PM 55.0 °F 51.1 °F 86% 29.55 in 7.0 mi SE 10.4 mph - 0.01 in Rain Light Rain
3:00 PM 54.0 °F 51.1 °F 90% 29.56 in 6.0 mi ESE 11.5 mph - 0.01 in Rain Light Rain
3:25 PM 53.1 °F 52.0 °F 96% 29.55 in 5.0 mi ESE 9.2 mph - 0.04 in Rain Light Rain
3:53 PM 53.1 °F 51.1 °F 93% 29.55 in 10.0 mi ESE 11.5 mph - 0.05 in Rain Light Rain
4:53 PM 53.1 °F 52.0 °F 96% 29.54 in 10.0 mi East 4.6 mph - 0.01 in   Overcast
5:53 PM 53.1 °F 52.0 °F 96% 29.54 in 7.0 mi ESE 8.1 mph - 0.01 in Rain Light Rain
6:53 PM 52.0 °F 52.0 °F 100% 29.55 in 10.0 mi East 8.1 mph - 0.08 in Rain Light Rain
7:53 PM 51.1 °F 50.0 °F 96% 29.55 in 10.0 mi ESE 6.9 mph - 0.01 in Rain Light Rain
8:53 PM 50.0 °F 48.9 °F 96% 29.57 in 8.0 mi East 5.8 mph - 0.01 in Rain Light Rain
9:53 PM 51.1 °F 50.0 °F 96% 29.58 in 10.0 mi ESE 8.1 mph - 0.00 in Rain Light Rain
10:53 PM 51.1 °F 50.0 °F 96% 29.59 in 10.0 mi SE 5.8 mph - 0.02 in Rain Light Rain
11:53 PM 50.0 °F 48.9 °F 96% 29.60 in 10.0 mi East 4.6 mph - 0.00 in   Overcast